NOAA 16 DEB, 41262

Orbit data source: Space-Track

NOAA 16 DEB, 41262 is space debris in SSO originally from a launch on Thu, 21 Sep 2000 UTC launched from the Air Force Western Test Range (AFWTR). Debris objects in space refer to the collection of defunct objects orbiting the Earth. Examples of debris include non-operational satellites, rocket bodies, and fragments generated from explosions, collisions, or faulty payload assembly.

Loading next visibility...
Identifier
41262, 2000-055FN
Orbit
SSO
Country
Flag of USUS
Related business
Manufacturer
Unknown
Mission
Spacecraft
Bus & Motor
Unknown
Mass
Unknown
Launch date (UTC)
2000-09-21 (25 years ago)
Launch vehicle
Unknown
Launch site
Air Force Western Test Range (AFWTR)
Object type
Payload
Rocket body
Debris
Shape & HBR
Unknown shape, 0.1 m
Radar Cross Section
Small (<0.1 m²)

Expand to show TLE details & history
Last TLE update: 4 hours ago

TLE from 4 hours ago
0 NOAA 16 DEB
1 41262U 00055FN  25300.31786998  .00006871  00000-0  31235-2 0  9994
2 41262  98.7939 325.9275 0045807 262.1273  97.4703 14.21510890506486
Epoch: 2025-10-27T07:37Z
TLE epoch observation values (Epoch: 2025-10-27T07:37:43.966Z)
Latitude
-0.00002°
Longitude
175.57287°
Altitude
827.598 km
Speed
7.437 km/s
True Right ascension
21h 43m 42s
True Declination
0° 00' 00"
Sunlit
Object was in daylight at epoch
Visualization orbit readout
Latitude
Unknown
Longitude
Unknown
Altitude
Unknown
Speed
Unknown
Apparent Right ascension
Unknown
Apparent Declination
Unknown
Sunlit
N/A
Visualization observer readout
Local Sidereal Time
07:08:05
Azimuth
Unknown
Elevation
Unknown
Doppler factor
Unknown
Orbital elements
Apogee altitude
850.369 km
Perigee altitude
784.448 km
Semi-major axis
7,195.545 km
Eccentricity
0.00458
Inclination
98.7939°
RAAN
325.9275°
Arg. of periapsis
262.1273°
True anomaly
97.99036°
Mean anomaly
97.4703°
Eccentric anomaly
97.73037°
Mean motion
3.55588 °/min
Orbital period
101.24 mins
BSTAR
0.0031235
Loading maneuver chart data...
Computing Atmospheric mass density...
Loading historical data...
Loading historical data...
Loading historical data...
Loading historical data...
Loading historical data...
Loading historical data...
Loading historical data...

Documentation

Showing up to 5 results
|